User: anonymous   Login
Location: Cherry Springs State Park
(41.6616°N, 77.8240°W)
Time: 10:15:59
(UTC-05:00)
Language:

Cosmos 1437 - Orbit

View from above orbital plane
View from above orbital plane
View from above satellite
View from above satellite

Ground track
Ground track

The orbit data is extracted from the following two-line orbital elements,

1 13770U 83003A   17023.82798482  .00005419  00000-0  96970-4 0  9997
2 13770  81.1598 325.5449 0008460  55.0993 305.1047 15.49720263864156
Epoch (UTC): 23 January 2017 19:52:17
Eccentricity: 0.0008460
inclination: 81.1598°
perigee height: 412 km
apogee height: 423 km
right ascension of ascending node: 325.5449°
argument of perigee: 55.0993°
revolutions per day: 15.49720263
mean anomaly at epoch: 305.1047°
orbit number at epoch: 86415

The dashed part of the orbit path shows where the satellite is in the earth's shadow,  

DLR